Regional Weather Roundup
Issued by NWS Wakefield, VA

Home | Current Version | Previous Version | Text Only | Print | Product List | Glossary Off
Versions: 1 2 3 4 5 6 7 8 9 10 11 12 13 14 15 16 17 18 19 20 21 22 23 24 25 26 27 28 29 30 31 32 33 34 35 36 37 38 39 40 41 42 43 44 45 46 47 48 49 50

000
ASUS41 KAKQ 011214
RWRAKQ

REGIONAL WEATHER ROUNDUP
NATIONAL WEATHER SERVICE WAKEFIELD VA
800 AM EDT WED APR 01 2015

Note: "fair" indicates few or no clouds below 12,000 feet with no
significant weather and/or obstructions to visibility. * = Denotes
station may not report precipitation (e.g., rain,snow,etc.),
thunder or fog.

VAZ042-051-052>054-056-011300-
NORTHERN VIRGINIA

CITY           SKY/WX    TMP DP  RH WIND       PRES   REMARKS
WASH NATIONAL  MOSUNNY   43  27  53 NW9       30.12R
DULLES         SUNNY     36  27  69 NW5       30.11R
FORT BELVOIR   SUNNY     34  30  85 W1        30.12R
QUANTICO       SUNNY     38  31  76 NW7       30.13R
FREDERICKSBRG* SUNNY     36  32  84 CALM      30.12R
STAFFORD*      SUNNY     31  50 100 NW3       30.15R
WARRENTON      SUNNY     33  33 100 CALM      30.11R
CULPEPER*      SUNNY     34  30  86 CALM      30.12R
MANASSAS*      SUNNY     32  32 100 CALM      30.12R
LEESBURG*      SUNNY     34  32  93 CALM      30.12R
WINCHESTER     SUNNY     34  27  75 CALM      30.10R
FRONT ROYAL*   FAIR      32  28  86 S3        30.09R
LURAY*         FAIR      34  32  93 CALM      30.09R
$$

VAZ048-049-060>072-079>083-011300-
CENTRAL AND SOUTH CENTRAL VIRGINIA

CITY           SKY/WX    TMP DP  RH WIND       PRES   REMARKS
RICHMOND       MOSUNNY   42  27  55 N13       30.10R
CHESTERFIELD*  NOT AVBL
PETERSBURG*    SUNNY     43  29  59 NE7       30.11R
HANOVER        SUNNY     41  28  60 N8        30.11R
TAPPAHANNOCK*  SUNNY     40  28  63 NW5       30.10R
QUINTON*       FAIR      39  30  70 NE5       30.10R
CHARLOTTSVILLE SUNNY     39  29  67 CALM      30.09R
GORDONSVILLE*  FAIR      33  29  86 NE5       30.10R
ORANGE*        SUNNY     36  32  87 CALM      30.12R
LOUISA*        SUNNY     39  30  70 NE5       30.09R
BUMPASS*       FAIR      36  27  70 NE3       30.10R
FARMVILLE*     SUNNY     43  34  69 NE3       30.09R
CREWE*         FAIR      41  29  61 MISG      30.09R
FORT PICKETT*  FAIR      40  30  67 NE3       30.09R
CHASE CITY*    FAIR      44  35  69 NE3       30.08R
CLARKSVILLE*   FAIR      45  34  65 NE5       30.07R
SOUTH HILL*    SUNNY     41  29  61 N8        30.14R
LAWRENCEVILLE* FAIR      41  30  65 NE8       30.08R
EMPORIA*       SUNNY     41  30  65 N8        30.11R
$$

VAZ088>098-011300-
SOUTHEAST VIRGINIA

CITY           SKY/WX    TMP DP  RH WIND       PRES   REMARKS
NORFOLK        SUNNY     42  30  62 N18       30.07R
VIRGINIA BEACH MOSUNNY   44  33  65 N17G23    30.06R
NORFOLK NAVAL  MOSUNNY   46  31  55 N13G24    30.09R
WEST POINT*    SUNNY     40  33  76 CALM      30.11R
SALUDA*        FAIR      40  32  71 N5        30.09R
NEWPORT NEWS   SUNNY     44  28  53 N13G22    30.09R
LANGLEY AFB    SUNNY     43  30  61 N17       30.08
FORT EUSTIS    SUNNY     42  30  61 N8        30.07R
WILLIAMSBURG*  SUNNY     43  34  70 NE5       30.10R
HR EXEC AP*    FAIR      43  28  56 N8G16     30.09R
FRANKLIN*      SUNNY    N/A N/A N/A N12       30.10R
WAKEFIELD      SUNNY     42  29  59 N9        30.09R
$$

VAZ020-022-025-037-045-011300-
WEST CENTRAL AND SOUTHWEST VIRGINIA

CITY           SKY/WX    TMP DP  RH WIND       PRES   REMARKS
STAUNTON*      SUNNY     32  27  80 CALM      30.10R
WAYNESBORO*    FAIR      37  27  66 NW6       30.07R
HOT SPRINGS VA SUNNY     32  23  69 NW7       30.00R
LYNCHBURG      SUNNY     42  35  76 E6        30.09R
DANVILLE       SUNNY     49  39  68 NE6       30.07R
SOUTH BOSTON*  FAIR      45  34  66 NE3       30.09R
MARTINSVILLE   CLEAR     48  31  52 NW3       30.08R
ROANOKE        CLEAR     45  30  55 CALM      30.09R
BLACKSBURG     CLEAR     38  31  76 W3        30.10R
DUBLIN*        CLEAR     41  33  74 CALM      30.09R
MARION*        CLEAR     37  30  76 CALM      30.09R
HILLSVILLE*    CLEAR     40  30  67 NW7       30.06R
RICHLANDS*     FAIR      38  17  41 CALM      30.07R
WISE*          CLEAR     36  36 100 CALM      30.08R
ABINGDON*      CLEAR     39  33  81 CALM      30.08R
$$

MDZ021>025-VAZ099-100-011300-
SOUTHERN MARYLAND AND THE DELMARVA PENINSULA

CITY           SKY/WX    TMP DP  RH WIND       PRES   REMARKS
PATUXENT RIVER SUNNY     40  32  73 NW13      30.09R
BAY BRIDGE APT   N/A     39  32  75 NW7       30.10R
LEONARDTOWN    SUNNY     37  30  75 NW6       30.11R
DOVER          SUNNY     37  30  78 NW10      30.07R
GEORGETOWN     SUNNY     37  28  70 VRB6      30.07R
EASTON         SUNNY     39  32  75 NW3       30.12R
CAMBRIDGE      SUNNY     43  30  61 NW10      30.08R
SALISBURY      SUNNY     37  29  72 NW10      30.07R
OCEAN CITY     SUNNY     37  29  72 N14       30.06R
WALLOPS ISLAND SUNNY     38  29  70 N10       30.06R
ACCOMACK*      SUNNY     41  27  56 N13G18    30.07R
$$

NCZ012>017-030>032-011300-
NORTH CENTRAL AND EASTERN NORTH CAROLINA

CITY           SKY/WX    TMP DP  RH WIND       PRES   REMARKS
ROANOKE RAPIDS FAIR      43  30  61 N12G18    30.08R
RALEIGH        MOSUNNY   50  38  63 NE12      30.05R
ELIZABETH CITY SUNNY     43  33  68 N14       30.06R
AHOSKIE*       SUNNY     43  32  63 N9        30.09R
EDENTON*       SUNNY     44  37  76 NE7       30.06R
CURRITUCK*     SUNNY     42  32  69 N7G20     30.07R
KILL DEVIL HLS SUNNY     42  36  78 N10G18    30.02R
MANTEO         SUNNY     43  36  78 N18       30.03R
CAPE HATTERAS  SUNNY     44  36  73 N18G33    29.99R
TARBORO*       FAIR      48  37  64 NE10G17   30.07R
GOLDSBORO      SUNNY     52  41  66 N10       30.01R
WASHINGTON     SUNNY     47  38  72 NE8       30.04R
GREENVILLE     SUNNY     50  39  66 NE10      30.06R
NEW BERN       SUNNY     51  39  63 NE18      30.02R
WILMINGTON     PTSUNNY   56  49  77 NE10      29.97R
$$

VAZ048-011300-
ELSEWHERE

CITY           SKY/WX    TMP DP  RH WIND       PRES   REMARKS
HARRISBURG PA  MOSUNNY   35  28  75 NW5       30.07R
BALTIMORE      MOSUNNY   36  29  75 W3        30.09R
ANNAPOLIS      SUNNY     39  30  70 NW3       30.10R
ANDREWS AFB    SUNNY     40  28  62 W6        30.09R
PHILADELPHIA   MOSUNNY   36  24  62 NW3       30.08R
HENDERSON NC   SUNNY     45  34  65 NE8       30.07R
GREENSBORO     PTCLDY    52  29  41 N9        30.04R
ROCKY MOUNT    SUNNY     49  37  63 N12       30.05R
$$

VAZ100-011300-
MARINE

STATION/POSITION TIME  TEMP    WIND        PRES    WAVE   SWELL
                       AIR SEA DIR/SP/G            HT/PER HT/PER
                 (UTC) (F)     (DEG/KT/KT) (MB)    (FT/S) (FT/S)
BRANDYWINE LGT   1100   38 40  350/ 23/ 25 1016.6R
CAPE MAY NJ      1100   38 44  350/  1/  5 1016.2R
LEWES DE         1100   39 42  330/ 14/ 18 1016.8R
15NM E FENWICK I 1150   39 40              1016.8R   5/ 5
OCEAN-CITY-INLET 1100   37 41  330/  9/ 12 1016.6R
WACHAPREAGUE VA  1100   39 47  350/  4/  9 1017.1R
THOMAS POINT MD  1200                        N/A
COVE POINT MD    1100   37     310/  6/  8 1017.7R
SOLOMONS ISLAND  1100      44                N/A
BISHOPS HEAD MD  1100   36 45  330/  7/  8 1017.0R
PINEY POINT MD   1112          360/ 12/ 13   N/A
CAMBRIDGE MD     1100   41 45  320/ 10/ 12 1017.5R
LEWISETTA VA     1100   41 45              1017.7R
RAPPAHANNOCK LGT 1100          360/ 20/ 22 1017.6R
STINGRAY PT      1200   42 44  360/ 12/ 16   N/A     2/ 3
YORK RVR RNG VA  1100   41      10/ 23/ 25 1016.2R
YORKTOWN VA      1100   41 47  350/ 15/ 18 1017.2R
DOMINION TERM VA 1100   42      10/  5/ 11 1017.4R
KIPTOPEKE VA     1100      49   10/ 14/ 17   N/A
CHES BAY BRIDGE  1100   42 44  360/ 22/ 25 1016.5R
CAPE HENRY VA    1100   41     350/ 14/ 21 1015.6R
CHESAPEAKE LGHT  1100   41      10/ 21/ 24 1016.6R
WILLOUBY STN VA  1100   41     360/ 12/ 15 1017.7R
S CRANEY ISL VA  1100          360/ 17/ 20 1017.1R
CAPE HENRY BUOY  1128      42                N/A     4/ 5
1ST LANDING BUOY 1200   42     360/ 17/ 21 1017.9R   3/ 3
OFFSHORE WE BUOY 1111      41                N/A     5/ 5   2/13
64NM E OF VA BCH 1150   44 49  360/ 23/ 27 1015.3R   7/ 6
DUCK PIER NC     1100   42 42   10/ 18/ 20 1015.0R
44056 DUCK FRF   1111      42                N/A     4/ 5
OREGON INLET NC  1100   42 54  360/ 17/ 26 1015.2R
HATTERAS NC      1100   48 58   20/ 27/ 32 1014.5R
CAPE LOOKOUT NC  1200   53      20/ 17/ 22 1015.2R
$$


USA.gov is the U.S. government's official web portal to all federal, state and local government web resources and services.